CZ-3C DEB, 40174

Orbit data source: Space-Track

CZ-3C DEB, 40174 is space debris in HEO originally from a launch on Sun, 31 Oct 2010 UTC launched from the Xichang Space Center, China (XSC). Debris objects in space refer to the collection of defunct objects orbiting the Earth. Examples of debris include non-operational satellites, rocket bodies, and fragments generated from explosions, collisions, or faulty payload assembly.

Loading next visibility...
Identifier
40174, 2010-057AC
Orbit
HEO
Last TLE update
2 days ago
Origin
Manufacturer
CALT
Mission
Spacecraft
Bus & Motor
Unknown
Mass
Unknown
Launch date (UTC)
2010-10-31 (15 years ago)
Launch vehicle
Unknown
Launch site
Xichang Space Center, China (XSC)
Object type
Payload
Rocket body
Debris
Shape & HBR
Unknown
Radar Cross Section
Medium (>0.1 m² and <1 m²)

Expand to show TLE details & history

TLE from 2 days ago
0 CZ-3C DEB
1 40174U 10057AC  25180.39540730  .00000033  00000-0  20224-2 0  9994
2 40174  20.2016  74.8852 7093015 213.4348 352.1647  2.34828056 92202
Epoch: 2025-06-29T09:29Z
TLE epoch observation values (Epoch: 2025-06-29T09:29:23.19Z)
Latitude
7.84808°
Longitude
173.02069°
Altitude
2,136.144 km
Speed
8.772 km/s
True Right ascension
15h 32m 20s
True Declination
7° 48' 33"
Sunlit
Object was in daylight at epoch
Visualization orbit readout
Latitude
16.79869°
Longitude
69.01495°
Altitude
28,380.462 km
Speed
2.503 km/s
Apparent Right ascension
08h 44m 21s
Apparent Declination
8° 54' 53"
Sunlit
Object is in daylight
Visualization observer readout
Local Sidereal Time
21:39:26
Azimuth
17.75° NNE
Elevation
-39.532°
Doppler factor
1
Orbital elements
Apogee altitude
34,497.629 km
Perigee altitude
573.547 km
Semi-major axis
23,913.725 km
Eccentricity
0.7093
Inclination
20.2016°
RAAN
74.8852°
Arg. of periapsis
213.4348°
True anomaly
Unknown
Mean anomaly
352.1647°
Eccentric anomaly
Unknown
Mean motion
0.58691 °/min
Orbital period
613.38 mins
BSTAR
0.0020224
Loading maneuver chart data...
Loading SW <> Apogee altitude chart data...
Loading historical data...
Loading historical data...
Loading historical data...
Loading historical data...
Loading historical data...
Loading historical data...
Loading historical data...

CZ-3C DEB Visibility forecast

Observer location: undefined°, undefined°

Span
Click to sort rows by Start time (UTC) header in descending order
Start Az.
Max El. time (UTC)
Max El. Az.
Max El.
End time (UTC)
End Az.
543 mins2025-07-01 13:31:03.272Z153.263° SSE2025-07-01 21:00:03.272Z155.228° SSE41.198°2025-07-01 22:34:03.272Z106.383° ESE
|